FW6531 Weather Reports


Display with metric or nautical units.
time (UTC)temp
F
wind
direction
speed
MPH
gust
MPH
rain 1hr
in
rain 24hr
in
rain mn
in
humidity
%
barometer
mb
20260505053040 52 161 4.0 6.0 0.00 0.00 0.00 71 1007.8
20260505052540 52 163 3.0 7.0 0.00 0.00 0.00 70 1007.8
20260505052042 53 131 4.0 7.0 0.00 0.00 0.00 70 1007.8
20260505051538 53 145 3.0 7.0 0.00 0.00 0.00 70 1007.7
20260505051036 53 169 3.0 6.0 0.00 0.00 0.00 69 1007.8
20260505050535 54 153 3.0 6.0 0.00 0.00 0.00 68 1007.7
20260505041529 58 223 3.0 12.0 0.00 0.00 0.00 59 1007.3
20260505041025 58 229 3.0 9.0 0.00 0.00 0.00 58 1007.2
20260505040521 58 204 4.0 10.0 0.00 0.00 0.00 59 1007.1
20260505040020 58 216 3.0 9.0 0.00 0.00 0.00 59 1007.1
20260505035519 58 225 4.0 8.0 0.00 0.00 0.00 59 1007.1
20260505035018 58 187 2.0 15.0 0.00 0.00 0.00 59 1007.1
20260505034519 58 188 4.0 10.0 0.00 0.00 0.00 59 1007.2
20260505034021 58 200 5.0 12.0 0.00 0.00 0.00 58 1007.1
20260505033522 58 186 4.0 12.0 0.00 0.00 0.00 59 1007.1
20260505033020 58 177 5.0 13.0 0.00 0.00 0.00 59 1007.0
20260505032517 58 228 4.0 11.0 0.00 0.00 0.00 59 1006.9
20260505032021 58 177 5.0 12.0 0.00 0.00 0.00 59 1007.0
20260505031518 58 191 6.0 15.0 0.00 0.00 0.00 59 1007.0
20260505031016 58 209 6.0 15.0 0.00 0.00 0.00 61 1007.0
20260505030516 57 234 4.0 17.0 0.00 0.00 0.00 62 1006.9
20260505030016 56 207 7.0 13.0 0.00 0.00 0.00 63 1006.8
20260505025516 56 180 5.0 11.0 0.00 0.00 0.00 65 1006.9
20260505025015 55 210 5.0 10.0 0.00 0.00 0.00 67 1007.0
20260505024533 54 215 4.0 10.0 0.00 0.00 0.00 68 1006.9
20260505024015 54 216 4.0 8.0 0.00 0.00 0.00 69 1006.9
20260505023515 53 174 4.0 8.0 0.00 0.00 0.00 71 1006.9
20260505023016 53 209 3.0 14.0 0.00 0.00 0.00 71 1006.9
20260505022617 53 146 5.0 14.0 0.00 0.00 0.00 72 1006.7
20260505022014 53 190 4.0 10.0 0.00 0.00 0.00 72 1006.7
20260505021517 53 219 5.0 12.0 0.00 0.00 0.00 73 1006.7
20260505021015 53 209 4.0 11.0 0.00 0.00 0.00 73 1006.6
20260505020513 52 214 4.0 10.0 0.00 0.00 0.00 73 1006.7
20260505020014 52 178 3.0 8.0 0.00 0.00 0.00 74 1006.6
20260505015513 52 194 3.0 9.0 0.00 0.00 0.00 74 1006.5
20260505015017 52 185 3.0 7.0 0.00 0.00 0.00 74 1006.6
20260505014512 52 236 4.0 13.0 0.00 0.00 0.00 74 1006.5
20260505014012 52 218 5.0 13.0 0.00 0.00 0.00 75 1006.4
20260505013512 52 214 5.0 14.0 0.00 0.00 0.00 75 1006.3
20260505013020 51 192 6.0 14.0 0.00 0.00 0.00 76 1006.1
20260505012511 50 188 5.0 12.0 0.00 0.00 0.00 77 1006.1
20260505012015 50 186 5.0 10.0 0.00 0.00 0.00 78 1006.2
20260505011512 49 165 5.0 10.0 0.00 0.00 0.00 79 1006.0
20260505011011 49 188 5.0 10.0 0.00 0.00 0.00 81 1006.0
20260505010510 48 180 4.0 11.0 0.00 0.00 0.00 81 1006.0
20260505010011 48 244 2.0 9.0 0.00 0.00 0.00 81 1005.9
20260505005509 48 253 2.0 8.0 0.00 0.00 0.00 81 1005.9
20260505005010 48 200 2.0 8.0 0.00 0.00 0.00 80 1005.7
20260505004510 48 196 2.0 4.0 0.00 0.00 0.00 80 1005.8
20260505004014 48 199 0.0 2.0 0.00 0.00 0.00 80 1005.8
20260505003513 48 199 0.0 3.0 0.00 0.00 0.00 80 1005.7
20260505003010 48 198 1.0 3.0 0.00 0.00 0.00 80 1005.6
20260505002513 48 199 0.0 2.0 0.00 0.00 0.00 80 1005.5
20260505002007 49 199 0.0 2.0 0.00 0.00 0.00 80 1005.2
20260505001507 49 199 0.0 6.0 0.00 0.00 0.00 79 1005.3
20260505001009 49 199 1.0 6.0 0.00 0.00 0.00 79 1005.2
20260505000505 49 167 1.0 5.0 0.00 0.00 0.00 79 1005.3
20260505000011 49 171 1.0 5.0 0.00 0.00 0.00 79 1005.2
20260504235504 49 171 1.0 4.0 0.00 0.00 0.00 79 1005.2
20260504235004 49 173 2.0 5.0 0.00 0.00 0.00 78 1005.2
20260504234504 50 157 3.0 8.0 0.00 0.00 0.00 78 1005.4
20260504234002 50 139 3.0 8.0 0.00 0.00 0.00 77 1005.2
20260504233503 50 138 3.0 5.0 0.00 0.00 0.00 77 1005.2
20260504233001 51 134 3.0 5.0 0.00 0.00 0.00 76 1005.1
20260504232601 51 128 3.0 5.0 0.00 0.00 0.00 75 1005.0
20260504232059 51 140 3.0 7.0 0.00 0.00 0.00 74 1004.9
20260504231605 52 134 4.0 7.0 0.00 0.00 0.00 73 1004.8
20260504231059 52 128 3.0 5.0 0.00 0.00 0.00 73 1004.7
20260504230602 52 126 3.0 7.0 0.00 0.00 0.00 72 1004.6
20260504230100 53 135 4.0 7.0 0.00 0.00 0.00 71 1004.6
20260504225558 53 142 3.0 5.0 0.00 0.00 0.00 70 1004.6
20260504225102 54 135 3.0 5.0 0.00 0.00 0.00 69 1004.6
20260504224600 54 135 3.0 5.0 0.00 0.00 0.00 67 1004.6
20260504224102 55 135 2.0 5.0 0.00 0.00 0.00 66 1004.5
20260504223557 55 136 2.0 5.0 0.00 0.00 0.00 66 1004.4
20260504223159 55 131 4.0 5.0 0.00 0.00 0.00 67 1004.4
20260504222559 55 117 2.0 5.0 0.00 0.00 0.00 66 1004.4
20260504222057 56 136 2.0 5.0 0.00 0.00 0.00 65 1004.3
20260504221605 56 135 2.0 8.0 0.00 0.00 0.00 65 1004.4
20260504221057 56 130 3.0 8.0 0.00 0.00 0.00 64 1004.3
20260504220556 56 175 2.0 7.0 0.00 0.00 0.00 64 1004.4
20260504220056 57 141 2.0 9.0 0.00 0.00 0.00 62 1004.4
20260504215556 58 147 3.0 9.0 0.00 0.00 0.00 60 1004.4
20260504215055 59 158 2.0 8.0 0.00 0.00 0.00 58 1004.5
20260504214555 60 153 2.0 8.0 0.00 0.00 0.00 57 1004.5
20260504214054 61 122 3.0 8.0 0.00 0.00 0.00 53 1004.5
20260504213555 63 107 4.0 7.0 0.00 0.00 0.00 51 1004.4
20260504213055 63 142 3.0 7.0 0.00 0.00 0.00 47 1004.4
20260504212554 63 141 2.0 7.0 0.00 0.00 0.00 47 1004.4
20260504212055 63 126 2.0 8.0 0.00 0.00 0.00 47 1004.4
20260504211554 63 101 1.0 6.0 0.00 0.00 0.00 50 1004.3
20260504211054 63 111 0.0 4.0 0.00 0.00 0.00 48 1004.2
20260504210554 63 103 1.0 5.0 0.00 0.00 0.00 48 1004.3
20260504210108 63 134 2.0 8.0 0.00 0.00 0.00 49 1004.3
20260504205553 64 107 5.0 10.0 0.00 0.00 0.00 47 1004.4
20260504205052 65 121 3.0 10.0 0.00 0.00 0.00 46 1004.4
20260504204601 66 113 7.0 10.0 0.00 0.00 0.00 44 1004.3
20260504204053 67 111 5.0 10.0 0.00 0.00 0.00 43 1004.3
20260504203553 68 91 2.0 13.0 0.00 0.00 0.00 38 1004.2
20260504203051 68 313 4.0 13.0 0.00 0.00 0.00 39 1004.2
20260504202552 68 271 4.0 12.0 0.00 0.00 0.00 38 1004.2
20260504202053 68 267 5.0 12.0 0.00 0.00 0.00 38 1004.2
20260504201552 67 272 6.0 13.0 0.00 0.00 0.00 38 1004.2
20260504201050 67 315 4.0 13.0 0.00 0.00 0.00 37 1004.2
20260504200549 67 244 4.0 12.0 0.00 0.00 0.00 38 1004.4
20260504200050 68 252 4.0 11.0 0.00 0.00 0.00 38 1004.4
20260504195548 68 263 5.0 13.0 0.00 0.00 0.00 38 1004.2
20260504195047 68 273 5.0 14.0 0.00 0.00 0.00 39 1004.3
20260504194602 67 258 3.0 9.0 0.00 0.00 0.00 40 1004.2
20260504194045 67 332 3.0 6.0 0.00 0.00 0.00 39 1004.3
20260504193544 66 272 2.0 6.0 0.00 0.00 0.00 41 1004.3
20260504193042 66 316 3.0 6.0 0.00 0.00 0.00 40 1004.3
20260504192541 66 290 1.0 9.0 0.00 0.00 0.00 42 1004.4
20260504192041 65 294 5.0 9.0 0.00 0.00 0.00 43 1004.5
20260504191546 65 259 2.0 6.0 0.00 0.00 0.00 41 1004.6
20260504191039 64 314 2.0 6.0 0.00 0.00 0.00 42 1004.7
20260504190538 64 331 2.0 9.0 0.00 0.00 0.00 44 1004.7
20260504190045 64 321 2.0 9.0 0.00 0.00 0.00 42 1004.8
20260504185536 63 267 3.0 9.0 0.00 0.00 0.00 42 1004.8
20260504185036 63 342 1.0 7.0 0.00 0.00 0.00 43 1004.8
20260504184540 63 264 3.0 7.0 0.00 0.00 0.00 41 1004.9
20260504184036 64 338 3.0 10.0 0.00 0.00 0.00 41 1004.8
20260504183535 64 288 3.0 10.0 0.00 0.00 0.00 42 1004.8
20260504183035 64 306 2.0 10.0 0.00 0.00 0.00 40 1004.7
20260504182534 64 294 3.0 10.0 0.00 0.00 0.00 41 1004.7
20260504182035 64 263 3.0 9.0 0.00 0.00 0.00 40 1004.7
20260504181542 64 267 4.0 8.0 0.00 0.00 0.00 40 1004.8
20260504181033 63 278 3.0 14.0 0.00 0.00 0.00 40 1004.7
20260504180531 63 22 5.0 13.0 0.00 0.00 0.00 40 1004.7
20260504180045 62 260 4.0 13.0 0.00 0.00 0.00 44 1004.7
20260504175529 61 271 3.0 10.0 0.00 0.00 0.00 45 1004.6
20260504175031 60 270 2.0 10.0 0.00 0.00 0.00 52 1004.6
20260504174529 60 246 3.0 8.0 0.00 0.00 0.00 53 1004.5
20260504174028 60 265 2.0 4.0 0.00 0.00 0.00 51 1004.7
20260504173527 60 169 2.0 7.0 0.00 0.00 0.00 55 1004.6
20260504173028 61 209 1.0 12.0 0.00 0.00 0.00 55 1004.6
20260504172526 61 185 4.0 14.0 0.00 0.00 0.00 53 1004.5
20260504172027 61 180 4.0 11.0 0.00 0.00 0.00 56 1004.6
20260504171528 61 134 3.0 10.0 0.00 0.00 0.00 53 1004.5
20260504171027 61 189 4.0 14.0 0.00 0.00 0.00 55 1004.5
20260504170526 60 154 5.0 14.0 0.00 0.00 0.00 52 1004.4
20260504151009 62 167 3.0 11.0 0.00 0.00 0.00 52 1005.7
20260504150508 61 174 4.0 10.0 0.00 0.00 0.00 53 1005.7
20260504141054 56 236 5.0 13.0 0.00 0.00 0.00 56 1006.8
20260504140553 55 213 5.0 13.0 0.00 0.00 0.00 56 1006.8
20260504130545 52 243 5.0 12.0 0.00 0.00 0.00 59 1007.4
20260504110525 44 245 0.0 4.0 0.00 0.00 0.00 67 1007.8
20260504100508 43 252 2.0 4.0 0.00 0.00 0.00 65 1007.6
20260504081549 42 269 3.0 6.0 0.00 0.00 0.00 67 1007.5
20260504081048 42 250 3.0 6.0 0.00 0.00 0.00 67 1007.5
20260504080546 42 229 2.0 5.0 0.00 0.00 0.00 67 1007.6